This demonstration page uses our WeatherBlox Daily Observations layout. Learn more.

Left ArrowRight Arrow

39.08367, -84.50855

Hourly Observations for September 28, 2021

Temp ( °F °C ) Dew Point ( °F °C ) Humidity (%) Winds ( mph kmh ) Pressure ( in mb ) Visibility ( mi km ) Precip ( " mm )
12:53 am 00:53 Clear 68 20 62 16.7 81 81 SSW 9 15 29.93 1014 10 16 N/A
1:53 am 01:53 Clear 65 18.3 62 16.7 90 90 SSW 7 11 29.93 1014 10 16 N/A
2:53 am 02:53 Mostly Clear 65 18.3 62 16.7 90 90 N N/A 29.93 1014 10 16 N/A
3:53 am 03:53 Mostly Cloudy with Light Rain 68 20 63 17.2 84 84 SSW 9 15 29.93 1013 10 16 0.00 0.00
4:01 am 04:01 Mostly Cloudy with Thunderstorms 68 20 63 17.2 84 84 SW 6 9 29.93 1013 4 6 0.06 1.52
4:29 am 04:29 Mostly Cloudy with Light Rain 67 19.4 64 17.8 91 91 SSW 17 28 29.92 1013 6 10 0.12 3.05
4:43 am 04:43 Mostly Cloudy with Nearby Thunderstorms 66 18.9 64 17.8 93 93 SSW 14 22 29.92 1013 6 10 0.20 5.08
4:53 am 04:53 Mostly Cloudy with Light Rain 66 18.9 64 17.8 93 93 SSW 7 11 29.92 1013 9 14 0.21 5.33
5:53 am 05:53 Partly Cloudy with Light Rain 64 17.8 64 17.8 100 100 N N/A 29.93 1014 8 13 0.00 0.00
6:53 am 06:53 Clear 65 18.3 63 17.2 93 93 N N/A 29.95 1014 10 16 0.01 0.25
7:53 am 07:53 Sunny 63 17.2 62 16.7 97 97 N N/A 29.96 1014 7 11 N/A
7:57 am 07:57 Sunny 63 17.2 62 16.7 97 97 N N/A 29.96 1015 1 1 N/A
8:04 am 08:04 Mostly Sunny 62 16.7 62 16.7 100 100 N N/A 29.96 1015 10 16 N/A
8:53 am 08:53 Sunny 67 19.4 64 17.8 91 91 S 3 6 29.97 1015 10 16 N/A
9:53 am 09:53 Sunny 70 21.1 64 17.8 82 82 SW 6 9 29.97 1015 10 16 N/A
10:53 am 10:53 Sunny 73 22.8 64 17.8 74 74 W 9 15 29.97 1015 10 16 N/A
11:53 am 11:53 Sunny 75 23.9 64 17.8 69 69 WSW 5 7 29.96 1015 10 16 N/A
12:53 pm 12:53 Sunny 78 25.6 64 17.8 62 62 WSW 7 11 29.95 1014 10 16 N/A
1:53 pm 13:53 Sunny 81 27.2 65 18.3 58 58 W 7 11 29.94 1014 10 16 N/A
2:53 pm 14:53 Sunny 82 27.8 65 18.3 56 56 WSW 6 9 29.93 1013 10 16 N/A
3:53 pm 15:53 Mostly Sunny 83 28.3 66 18.9 57 57 W 6 9 29.91 1013 9 14 N/A
4:53 pm 16:53 Mostly Sunny 84 28.9 65 18.3 53 53 N N/A 29.91 1013 10 16 N/A
5:53 pm 17:53 Partly Cloudy 83 28.3 64 17.8 53 53 VRB 5 7 29.91 1013 10 16 N/A
6:53 pm 18:53 Mostly Sunny 76 24.4 71 21.7 85 85 N N/A 29.91 1013 10 16 N/A
7:53 pm 19:53 Clear 70 21.1 68 20 93 93 N N/A 29.93 1014 10 16 N/A
8:53 pm 20:53 Partly Cloudy 66 18.9 66 18.9 100 100 N N/A 29.95 1014 10 16 N/A
9:53 pm 21:53 Clear 66 18.9 66 18.9 100 100 N N/A 29.97 1015 10 16 N/A
10:53 pm 22:53 Clear 65 18.3 65 18.3 100 100 N N/A 29.98 1015 7 11 N/A
11:53 pm 23:53 Clear with Mist and Fog 64 17.8 64 17.8 100 100 N N/A 29.97 1015 6 10 N/A

Powered by AerisWeather